Regional Weather Roundup
Issued by NWS

Home | Current Version | Previous Version | Text Only | Print | Product List | Glossary On
Versions: 1 2 3 4 5 6 7 8 9 10 11 12 13 14 15 16 17 18 19 20 21 22 23 24 25 26 27 28 29 30 31 32 33 34 35 36 37 38 39 40 41 42 43 44 45 46 47 48 49 50
000
ASUS43 KIND 130109
RWRIN

WEATHER ROUNDUP FOR INDIANA
NATIONAL WEATHER SERVICE INDIANAPOLIS IN
800 PM EST FRI FEB 12 2016

NOTE: "FAIR" INDICATES FEW OR NO CLOUDS BELOW 12,000 FEET WITH NO
SIGNIFICANT WEATHER AND/OR OBSTRUCTIONS TO VISIBILITY.

* - STATION DOES NOT REPORT WEATHER SUCH AS PRECIPITATION OR FOG.

+ - STATION NOT QUALITY CONTROLLED BY THE NATIONAL WEATHER SERVICE.
    USE DATA WITH CAUTION...ESPECIALLY DEWPOINT AND RELATIVE
    HUMIDITY OBSERVATIONS.

INZ001>003-010>013-019-020-130200-
NORTHWEST INDIANA

CITY           SKY/WX    TMP DP  RH WIND       PRES   REMARKS
GARY /AIRPORT/ PTCLDY    19  -4  35 NW29G41   30.31R WCI   1
KNOX *+        CLOUDY    19   9  63 NW25      30.25R WCI   2
LA PORTE +     CLOUDY    19   6  57 NW22G36   30.24R HAZE    WCI   3
MICHIGAN CITY+ CLOUDY    19   3  49 NW21G32   30.27R WCI   3
MONTICELLO +   CLOUDY    20   3  48 NW15G22   30.25R WCI   6
RENSSELAER +   PTCLDY    21   0  39 NW12      30.28R WCI   9
VALPARAISO     CLOUDY    19   0  43 NW22G35   30.26R WCI   2

$$

LMZ046-743>745-130200-
SOUTHERN LAKE MICHIGAN

STATION/POSITION TIME  TEMP    WIND        PRES    WAVE
                       AIR SEA DIR/SP/G            HT
                 (UTC) (F)     (DEG/KT/KT) (MB)    (FT)
BURNS HARBOR     0004   20     320/ 23/ 29 1023.7R
MICHIGAN CITY    0000   20     290/ 28/ 34   N/A

$$

INZ004-005-014>016-021>024-130200-
NORTH CENTRAL INDIANA

CITY           SKY/WX    TMP DP  RH WIND       PRES   REMARKS
ELKHART        LGT SNOW  16  10  79 NW17G30   30.22R WCI   0
GOSHEN         LGT SNOW  15   9  76 NW24G35   30.20R VSB 1   WCI  -4
LOGANSPORT +   MOCLDY    21   3  45 NW10G18   30.24R WCI  10
PERU/GRISSOM   PTCLDY    19   7  59 NW16      30.20R WCI   4
ROCHESTER +    CLEAR     21   3  45 NW18G24   30.22R WCI   6
SOUTH BEND     CLOUDY    15   5  64 N17G30    30.23R WCI  -1
WARSAW +       FLURRIES  18  10  73 NW13G20   30.20R WCI   4

$$

INZ006>009-017-018-025>027-130200-
NORTHEAST INDIANA

CITY           SKY/WX    TMP DP  RH WIND       PRES   REMARKS
ANGOLA *+      MOCLDY    14   9  79 NW21      30.12R WCI  -4
AUBURN +       LGT SNOW  18  12  79 NW9       30.17R WCI   6
FORT WAYNE     LGT SNOW  18  12  77 NW14G20   30.19R WCI   4
HUNTINGTON +   LGT SNOW  17  11  76 NW9G18    30.19R VSB 1   WCI   6

$$

INZ028-029-035-036-043>045-051>053-130200-
WEST CENTRAL INDIANA

CITY           SKY/WX    TMP DP  RH WIND       PRES   REMARKS
CRAWFORDSVL +  MOCLDY    19   5  54 NW13      30.27R WCI   6
GREENCASTLE +  MOCLDY    23   5  46 NW9       30.26R WCI  13
LAFAYETTE      CLEAR     19   6  57 NW12      30.28R WCI   7
TERRE HAUTE    PTCLDY    24  10  55 NW13      30.31R WCI  12

$$

INZ030>032-037>040-046>048-054>057-064-065-130200-
CENTRAL INDIANA

CITY           SKY/WX    TMP DP  RH WIND       PRES   REMARKS
FRANKFORT +    CLEAR     20  -1  40 NW14G23   30.26R WCI   6
GREENWOOD *+   CLOUDY    25  14  63 NW10G21   30.23  WCI  15
INDIANAPOLIS   FLURRIES  23  10  57 NW21      30.23R WCI   8
-EAGLE CREEK   CLOUDY    22   8  55 NW21G31   30.23R WCI   6
KOKOMO *+      MOCLDY    19   7  58 N18G24    30.22R WCI   4
MARION +       PTCLDY    18  -1  42 NW10G17   30.21R WCI   6
MT COMFORT *+  CLOUDY    21   9  58 NW24G31   30.22R WCI   4
SHELBYVILLE    MOCLDY    23  10  57 NW12      30.22R WCI  12
ZIONSVILLE +   PTCLDY    19   7  58 NW17G26   30.23R WCI   4

$$

INZ033-034-041-042-049-050-058-059-130200-
EAST CENTRAL INDIANA

CITY           SKY/WX    TMP DP  RH WIND       PRES   REMARKS
MUNCIE         CLOUDY    20  11  68 NW13      30.19R WCI   7

$$

INZ060-061-067>069-081>083-085>088-130200-
SOUTHWEST INDIANA

CITY           SKY/WX    TMP DP  RH WIND       PRES   REMARKS
EVANSVILLE     CLOUDY    29  15  56 NW8G24    30.37R WCI  21
HUNTINGBURG *+ CLOUDY    27  14  59 NW18G25   30.33R WCI  13
WASHINGTON +   MOCLDY    26  14  60 NW17      30.33R WCI  14

$$

INZ062-063-066-070>080-084-089>092-130200-
SOUTH CENTRAL AND SOUTHEAST INDIANA

CITY           SKY/WX    TMP DP  RH WIND       PRES   REMARKS
BEDFORD +      CLEAR     25  12  58 NW9G18    30.28  WCI  15
BLOOMINGTON    MOCLDY    24  11  57 NW8G25    30.26R WCI  15
MADISON *+     MOCLDY    27  16  63 NW10G22   30.25R WCI  17
NORTH VERNON + PTCLDY    25  10  54 NW17G28   30.24  WCI  11
SEYMOUR +      MOCLDY    28  12  50 NW22G29   30.26R WCI  15

$$




USA.gov is the U.S. government's official web portal to all federal, state and local government web resources and services.